Regional Weather Roundup
Issued by NWS

Home | Current Version | Previous Version | Text Only | Print | Product List | Glossary Off
Versions: 1 2 3 4 5 6 7 8 9 10 11 12 13 14 15 16 17 18 19 20 21 22 23 24 25 26 27 28 29 30 31 32 33 34 35 36 37 38 39 40 41 42 43 44 45 46 47 48 49 50

000
ASUS43 KLOT 261709
RWRIL

ILLINOIS REGIONAL WEATHER ROUNDUP
NATIONAL WEATHER SERVICE CHICAGO/ROMEOVILLE IL
1200 PM CDT MON JUN 26 2017

NOTE: "FAIR" INDICATES FEW OR NO CLOUDS BELOW 12,000 FEET WITH NO
SIGNIFICANT WEATHER AND/OR OBSTRUCTIONS TO VISIBILITY.

* THESE STATIONS ARE NOT UNDER NWS QUALITY CONTROL. THEY ALSO MAY NOT
  REPORT WEATHER SUCH AS PRECIPITATION OR FOG.

ILZ001-002-007-009-015-016-024-261800-
NORTHWEST ILLINOIS

CITY           SKY/WX    TMP DP  RH WIND       PRES   REMARKS
MOLINE         PTSUNNY   71  50  47 W17       30.15F
STERLING*      MOSUNNY   70  50  49 W16G22    30.13F
SAVANNA*       PTSUNNY   68  49  50 NW12      30.13F
$$

ILZ003-004-008-010-011-017-018-261800-
NORTH CENTRAL ILLINOIS

CITY           SKY/WX    TMP DP  RH WIND       PRES   REMARKS
ROCKFORD       MOSUNNY   70  45  40 W20G26    30.11F
FREEPORT*      MOSUNNY   67  44  42 NW16G22   30.14S
ROCHELLE*      PTSUNNY   68  48  48 NW13G25   30.12S
DE KALB*       PTSUNNY   68  46  45 W16G26    30.11S
PERU*          MOSUNNY   68  51  53 NW17      30.13F
$$

ILZ005-006-012>014-019>023-261800-
NORTHEAST ILLINOIS

CITY           SKY/WX    TMP DP  RH WIND       PRES   REMARKS
CHICAGO-OHARE  PTSUNNY   71  45  39 W13G26    30.07F
CHICAGO-MIDWAY PTSUNNY   70  46  42 W20G29    30.08F
AURORA         PTSUNNY   68  46  45 W17       30.11S
LANSING*       PTSUNNY   68  42  38 W15G24    30.09F
JOLIET*        PTSUNNY   71  46  39 W13G20    30.10F
WAUKEGAN       MOSUNNY   67  45  45 W12       30.06F
DUPAGE AIRPORT MOSUNNY   69  48  47 NW15G23   30.08F
WHEELING       MOSUNNY   69  45  41 W18G28    30.09S
MORRIS*        MOSUNNY   73  45  37 W16G23    30.10S
ROMEOVILLE*    PTSUNNY   71  41  33 NW14G23   30.09F
NORTHERLY ISL    N/A     68  40  35 SW14        N/A
$$

LMZ740>746-261800-
SOUTHERN LAKE MICHIGAN

STATION/POSITION SKY/WX   TEMP    WIND        PRES    VSBY  WAVE
                          AIR SEA DIR/SP/G                  HT/PER
                          (F)     (DEG/KT/KT) (MB)    (MI)  (FT/S)
SOUTHERN BUOY              61 61  290/ 12/ 12 1018.0F         2/ 4
WILMETTE HARBOR            65 64  280/ 16/ 19   N/A           2/ 2
HARRISON CRIB              67     260/ 17/ 20   N/A
BURNHAM HARBOR             69                   N/A
CALUMET HARBOR             70     280/  5/ 14 1018.1F
BURNS HARBOR               66     300/ 11/ 14 1019.3F
MICHIGAN CITY              65     240/ 10/ 10   N/A
MICHIGAN CITY 6N           65 66  260/  8/ 10   N/A           2/ 4
ST. JOSEPH                 64 69  270/ 10/ 12 1018.8          3/ 4
$$

ILZ025>027-034>036-040-047-049-050-058-095>099-261800-
WEST-CENTRAL ILLINOIS

CITY           SKY/WX    TMP DP  RH WIND       PRES   REMARKS
QUINCY         LGT RAIN  62  54  74 NW10      30.25S
GALESBURG*     CLOUDY    65  52  62 W13G18    30.19F
MACOMB*        CLOUDY    60  55  82 W8        30.22F
JACKSONVILLE*  CLOUDY    65  50  57 NW14      30.24R
PITTSFIELD*    CLOUDY    68  51  53 NW8       30.25F
$$

ILZ028>032-037-038-041>044-048-051>054-059>061-261800-
CENTRAL ILLINOIS

CITY           SKY/WX    TMP DP  RH WIND       PRES   REMARKS
PONTIAC        PTSUNNY   70  48  45 W17G29    30.15F
BLOOMINGTON    CLOUDY    68  47  46 NW16G23   30.18S
DECATUR        LGT RAIN  69  45  41 NW18G25   30.21R
PEORIA         CLOUDY    68  49  50 W14G21    30.18F
LACON*         CLOUDY    68  50  52 W8G18     30.14F
LINCOLN*       PTSUNNY   67  51  57 W8        30.20S
SPRINGFIELD    LGT RAIN  65  53  65 W8G18     30.23R
TAYLORVILLE    PTSUNNY   72  47  41 NW18G26   30.22R
$$

ILZ033-039-045-046-055>057-062-063-261800-
EAST-CENTRAL ILLINOIS

CITY           SKY/WX    TMP DP  RH WIND       PRES   REMARKS
CHAMPAIGN      MOSUNNY   72  45  37 NW17G25   30.18R
RANTOUL*       PTSUNNY   72  45  37 W17       30.17R
MATTOON        MOSUNNY   74  48  39 NW15      30.18S
PARIS*         PTSUNNY   72  49  44 W13G22    30.18R
$$

ILZ079-100>102-261800-
SOUTHWEST ILLINOIS

CITY           SKY/WX    TMP DP  RH WIND       PRES   REMARKS
ALTON          MOSUNNY   73  50  43 W10       30.21S
BELLEVILLE     SUNNY     76  46  34 CALM      30.21S
CAHOKIA*       SUNNY     78  44  29 VRB5      30.20S
SPARTA*        SUNNY     76  46  35 S6        30.21F
$$

ILZ064>066-069>071-074>076-080>082-084>086-088>090-092>094-261800-
SOUTH-CENTRAL ILLINOIS

CITY           SKY/WX    TMP DP  RH WIND       PRES   REMARKS
CARBONDALE     SUNNY     75  49  39 S3        30.21F
CAIRO*         CLOUDY    74  50  42 NE6       30.21F
EFFINGHAM*     MOSUNNY   75  49  39 W12       30.20F
MARION         MOSUNNY   77  46  33 W5        30.22S
MT. VERNON     SUNNY     75  48  38 VRB3      30.20F
CENTRALIA*     SUNNY     77  49  36 SW5       30.19F
SALEM*         SUNNY     77  46  34 W7        30.19F
METROPOLIS*    CLOUDY    75  48  38 N3        30.22S
$$

ILZ067-068-072-073-078-083-087-091-261800-
SOUTHEAST ILLINOIS

CITY           SKY/WX    TMP DP  RH WIND       PRES   REMARKS
LAWRENCEVILLE  SUNNY     75  47  36 W13G22    30.19F
FLORA*         SUNNY     78  47  33 N6        30.19F
FAIRFIELD*     SUNNY     75  47  36 W5        30.19S
HARRISBURG*    SUNNY     76  50  39 NE6       30.20F
ROBINSON*      SUNNY     74  49  40 NW10G20   30.19S
CARMI*         SUNNY     75  49  39 NW10      30.20S
$$

ABBREVIATIONS USED IN REMARKS
   TC - TEMPERATURE IN CELSIUS
  WCI - WIND CHILL INDEX
   HX - HEAT INDEX
  VSB - VISIBILITY
$$





USA.gov is the U.S. government's official web portal to all federal, state and local government web resources and services.